sat.trackr.live / text

‹ back to catalog

STARLINK-30274

NORAD 57672 · 2023-124K

PAYLOAD ACTIVE UNKNOWN

§ Identity

Operator
Country
US
Launch date
2023-08-22
Launch site
AFWTR
Launch vehicle
Mass (kg)
RCS (m²)

Purposes: comms

External: N2YO · Heavens-Above · Gunter

§ Orbital elements

Epoch: 2026-05-25T03:42:07.208640Z

Period
94.11 min
Inclination
53.1596°
Eccentricity
0.0000836
Mean motion
15.30192588 rev/d
Perigee alt
474.7 km
Apogee alt
475.8 km
Semi-major
6,853.4 km
B*
2.4611e-5
RAAN
211.7775°
Arg perigee
94.1821°
Mean anomaly
265.9276°
Rev number
15,527

§ Raw data

STARLINK-302741 57672U 23124K   26145.15425010  .00000370  00000+0  24611-4 0  99922 57672  53.1596 211.7775 0000836  94.1821 265.9276 15.30192588155279

JSON: /api/v1/satellites/57672 · /tle

For live sub-satellite position, see the globe view (requires WebGL).

§ Visibility from observer

Set your observer location to see the next 7 days of passes ≥ 10°. The values pass through the URL so the page stays shareable.

No JS? Fill the form by hand. The geolocation button needs JavaScript.